Time,TemperatureF,DewpointF,PressureIn,WindDirection,WindDirectionDegrees,WindSpeedMPH,WindSpeedGustMPH,Humidity,HourlyPrecipIn,Conditions,Clouds,dailyrainin,SoftwareType,DateUTC
2013-01-20 00:08:00,65.0,64.0,30.09,NW,309,0.0,-999.0,97,-99.99,,,0.00,weatherlink.com 1.10,2013-01-20 05:08:00,
2013-01-20 00:23:00,64.9,64.0,30.08,WNW,295,0.0,-999.0,97,-99.99,,,0.00,weatherlink.com 1.10,2013-01-20 05:23:00,
2013-01-20 00:38:00,64.8,64.0,30.08,WNW,295,0.0,-999.0,97,-99.99,,,0.00,weatherlink.com 1.10,2013-01-20 05:38:00,
2013-01-20 00:54:00,64.8,64.0,30.08,WNW,294,0.0,-999.0,97,-99.99,,,0.00,weatherlink.com 1.10,2013-01-20 05:54:00,
2013-01-20 01:09:00,64.7,64.0,30.08,WNW,295,0.0,-999.0,97,-99.99,,,0.00,weatherlink.com 1.10,2013-01-20 06:09:00,
2013-01-20 01:24:00,64.6,64.0,30.08,WNW,294,0.0,-999.0,97,-99.99,,,0.00,weatherlink.com 1.10,2013-01-20 06:24:00,
2013-01-20 01:39:00,64.5,64.0,30.08,North,351,0.0,-999.0,97,-99.99,,,0.00,weatherlink.com 1.10,2013-01-20 06:39:00,
2013-01-20 01:54:00,64.3,64.0,30.07,NW,322,0.0,-999.0,97,-99.99,,,0.00,weatherlink.com 1.10,2013-01-20 06:54:00,
2013-01-20 02:09:00,64.1,63.0,30.07,NW,322,0.0,-999.0,97,-99.99,,,0.00,weatherlink.com 1.10,2013-01-20 07:09:00,
2013-01-20 02:24:00,64.0,63.0,30.06,NW,322,0.0,-999.0,97,-99.99,,,0.00,weatherlink.com 1.10,2013-01-20 07:24:00,
2013-01-20 02:39:00,64.0,63.0,30.06,NW,322,0.0,-999.0,97,-99.99,,,0.00,weatherlink.com 1.10,2013-01-20 07:39:00,
2013-01-20 02:54:00,63.9,63.0,30.06,NW,305,0.0,-999.0,97,-99.99,,,0.00,weatherlink.com 1.10,2013-01-20 07:54:00,
2013-01-20 03:09:00,63.8,63.0,30.06,NW,306,0.0,-999.0,97,-99.99,,,0.00,weatherlink.com 1.10,2013-01-20 08:09:00,
2013-01-20 03:24:00,63.9,63.0,30.06,NW,311,0.0,-999.0,98,-99.99,,,0.00,weatherlink.com 1.10,2013-01-20 08:24:00,
2013-01-20 03:39:00,63.8,63.0,30.05,NW,311,0.0,-999.0,98,-99.99,,,0.00,weatherlink.com 1.10,2013-01-20 08:39:00,
2013-01-20 03:54:00,63.6,63.0,30.05,NW,311,0.0,-999.0,97,-99.99,,,0.00,weatherlink.com 1.10,2013-01-20 08:54:00,
2013-01-20 04:09:00,63.4,63.0,30.05,NW,311,0.0,-999.0,98,-99.99,,,0.00,weatherlink.com 1.10,2013-01-20 09:09:00,
2013-01-20 04:24:00,63.6,63.0,30.06,NW,311,0.0,-999.0,98,-99.99,,,0.00,weatherlink.com 1.10,2013-01-20 09:24:00,
2013-01-20 04:39:00,64.0,64.0,30.06,NW,311,0.0,-999.0,98,-99.99,,,0.00,weatherlink.com 1.10,2013-01-20 09:39:00,
2013-01-20 04:54:00,64.2,64.0,30.05,NW,311,0.0,-999.0,98,-99.99,,,0.00,weatherlink.com 1.10,2013-01-20 09:54:00,
2013-01-20 05:09:00,64.2,64.0,30.06,NW,311,0.0,-999.0,98,-99.99,,,0.00,weatherlink.com 1.10,2013-01-20 10:09:00,
2013-01-20 05:24:00,64.1,64.0,30.06,NW,317,0.0,-999.0,98,-99.99,,,0.00,weatherlink.com 1.10,2013-01-20 10:24:00,
2013-01-20 05:39:00,64.3,64.0,30.07,NW,326,1.0,-999.0,98,-99.99,,,0.00,weatherlink.com 1.10,2013-01-20 10:39:00,
2013-01-20 05:54:00,64.6,64.0,30.07,NNW,329,0.0,-999.0,98,-99.99,,,0.00,weatherlink.com 1.10,2013-01-20 10:54:00,
2013-01-20 06:09:00,64.4,64.0,30.07,West,278,1.0,-999.0,98,-99.99,,,0.00,weatherlink.com 1.10,2013-01-20 11:09:00,
2013-01-20 06:24:00,64.3,64.0,30.08,NW,318,1.0,-999.0,98,-99.99,,,0.00,weatherlink.com 1.10,2013-01-20 11:24:00,
2013-01-20 06:39:00,64.4,64.0,30.08,NNW,343,2.0,-999.0,98,-99.99,,,0.00,weatherlink.com 1.10,2013-01-20 11:39:00,
2013-01-20 06:54:00,64.4,64.0,30.08,NNW,342,0.0,-999.0,98,-99.99,,,0.00,weatherlink.com 1.10,2013-01-20 11:54:00,
2013-01-20 07:09:00,64.4,64.0,30.09,WNW,288,0.0,-999.0,98,-99.99,,,0.00,weatherlink.com 1.10,2013-01-20 12:09:00,
2013-01-20 07:24:00,64.3,64.0,30.09,NNW,327,0.0,-999.0,98,-99.99,,,0.00,weatherlink.com 1.10,2013-01-20 12:24:00,
2013-01-20 07:39:00,64.4,64.0,30.09,West,271,0.0,-999.0,98,-99.99,,,0.00,weatherlink.com 1.10,2013-01-20 12:39:00,
2013-01-20 07:54:00,65.6,65.0,30.10,West,271,0.0,-999.0,98,-99.99,,,0.00,weatherlink.com 1.10,2013-01-20 12:54:00,
2013-01-20 08:09:00,65.6,65.0,30.11,West,271,0.0,-999.0,97,-99.99,,,0.00,weatherlink.com 1.10,2013-01-20 13:09:00,
2013-01-20 08:24:00,66.5,66.0,30.11,West,271,0.0,-999.0,98,-99.99,,,0.00,weatherlink.com 1.10,2013-01-20 13:24:00,
2013-01-20 08:39:00,66.6,66.0,30.11,NNW,331,0.0,-999.0,97,-99.99,,,0.00,weatherlink.com 1.10,2013-01-20 13:39:00,
2013-01-20 08:54:00,67.2,66.0,30.12,NW,317,0.0,-999.0,97,-99.99,,,0.00,weatherlink.com 1.10,2013-01-20 13:54:00,
2013-01-20 09:09:00,68.1,67.0,30.12,NW,305,0.0,-999.0,97,-99.99,,,0.00,weatherlink.com 1.10,2013-01-20 14:09:00,
2013-01-20 09:24:00,68.7,68.0,30.12,NW,319,2.0,-999.0,96,-99.99,,,0.00,weatherlink.com 1.10,2013-01-20 14:24:00,
2013-01-20 09:39:00,69.4,68.0,30.13,NNW,329,1.0,-999.0,95,-99.99,,,0.00,weatherlink.com 1.10,2013-01-20 14:39:00,
2013-01-20 09:54:00,70.3,68.0,30.13,WNW,283,0.0,-999.0,93,-99.99,,,0.00,weatherlink.com 1.10,2013-01-20 14:54:00,
2013-01-20 10:09:00,71.6,69.0,30.12,WNW,300,0.0,-999.0,92,-99.99,,,0.00,weatherlink.com 1.10,2013-01-20 15:09:00,
2013-01-20 10:24:00,73.0,69.0,30.12,WNW,293,1.0,-999.0,87,-99.99,,,0.00,weatherlink.com 1.10,2013-01-20 15:24:00,
2013-01-20 10:39:00,74.0,69.0,30.12,NE,42,0.0,-999.0,84,-99.99,,,0.00,weatherlink.com 1.10,2013-01-20 15:39:00,
2013-01-20 10:55:00,75.3,69.0,30.12,NW,319,0.0,-999.0,81,-99.99,,,0.00,weatherlink.com 1.10,2013-01-20 15:55:00,
2013-01-20 11:10:00,75.9,69.0,30.11,North,360,1.0,-999.0,79,-99.99,,,0.00,weatherlink.com 1.10,2013-01-20 16:10:00,
2013-01-20 11:25:00,76.8,70.0,30.10,West,260,0.0,-999.0,79,-99.99,,,0.00,weatherlink.com 1.10,2013-01-20 16:25:00,
2013-01-20 11:40:00,78.0,69.0,30.09,SE,126,0.0,-999.0,74,-99.99,,,0.00,weatherlink.com 1.10,2013-01-20 16:40:00,
2013-01-20 11:55:00,78.5,69.0,30.08,NW,317,0.0,-999.0,73,-99.99,,,0.00,weatherlink.com 1.10,2013-01-20 16:55:00,
2013-01-20 12:10:00,79.3,69.0,30.07,NE,41,0.0,-999.0,70,-99.99,,,0.00,weatherlink.com 1.10,2013-01-20 17:10:00,
2013-01-20 12:25:00,79.0,68.0,30.06,South,182,0.0,-999.0,70,-99.99,,,0.00,weatherlink.com 1.10,2013-01-20 17:25:00,
2013-01-20 12:40:00,79.1,68.0,30.05,SSE,163,1.0,-999.0,69,-99.99,,,0.00,weatherlink.com 1.10,2013-01-20 17:40:00,
2013-01-20 12:55:00,80.4,68.0,30.04,ENE,66,2.0,-999.0,66,-99.99,,,0.00,weatherlink.com 1.10,2013-01-20 17:55:00,
2013-01-20 13:10:00,79.4,67.0,30.03,SE,135,1.0,-999.0,66,-99.99,,,0.00,weatherlink.com 1.10,2013-01-20 18:10:00,
2013-01-20 13:25:00,80.2,67.0,30.03,ESE,108,0.0,-999.0,64,-99.99,,,0.00,weatherlink.com 1.10,2013-01-20 18:25:00,
2013-01-20 13:40:00,81.1,69.0,30.02,WNW,300,0.0,-999.0,66,-99.99,,,0.00,weatherlink.com 1.10,2013-01-20 18:40:00,
2013-01-20 13:55:00,79.5,69.0,30.02,ESE,123,1.0,-999.0,71,-99.99,,,0.00,weatherlink.com 1.10,2013-01-20 18:55:00,
2013-01-20 14:10:00,79.4,69.0,30.01,ENE,66,3.0,-999.0,71,-99.99,,,0.00,weatherlink.com 1.10,2013-01-20 19:10:00,
2013-01-20 14:25:00,77.9,69.0,30.01,East,101,1.0,-999.0,74,-99.99,,,0.00,weatherlink.com 1.10,2013-01-20 19:25:00,
2013-01-20 14:40:00,78.3,70.0,30.01,East,92,4.0,-999.0,75,-99.99,,,0.00,weatherlink.com 1.10,2013-01-20 19:40:00,
2013-01-20 14:55:00,78.1,70.0,30.00,East,88,4.0,-999.0,75,-99.99,,,0.00,weatherlink.com 1.10,2013-01-20 19:55:00,
2013-01-20 15:10:00,76.8,69.0,30.00,ESE,105,2.0,-999.0,76,-99.99,,,0.00,weatherlink.com 1.10,2013-01-20 20:10:00,
2013-01-20 15:25:00,76.0,69.0,30.00,ENE,77,3.0,-999.0,78,-99.99,,,0.00,weatherlink.com 1.10,2013-01-20 20:25:00,
2013-01-20 15:40:00,75.8,69.0,30.00,NNE,17,3.0,-999.0,78,-99.99,,,0.00,weatherlink.com 1.10,2013-01-20 20:40:00,
2013-01-20 15:55:00,75.8,69.0,30.00,ENE,72,2.0,-999.0,78,-99.99,,,0.00,weatherlink.com 1.10,2013-01-20 20:55:00,
2013-01-20 16:10:00,75.7,68.0,30.01,ENE,71,1.0,-999.0,78,-99.99,,,0.00,weatherlink.com 1.10,2013-01-20 21:10:00,
2013-01-20 16:25:00,75.3,68.0,30.01,East,97,6.0,-999.0,77,-99.99,,,0.00,weatherlink.com 1.10,2013-01-20 21:25:00,
2013-01-20 16:40:00,74.9,68.0,30.02,ENE,58,4.0,-999.0,78,-99.99,,,0.00,weatherlink.com 1.10,2013-01-20 21:40:00,
2013-01-20 16:55:00,74.5,67.0,30.02,NE,45,3.0,-999.0,78,-99.99,,,0.00,weatherlink.com 1.10,2013-01-20 21:55:00,
2013-01-20 17:10:00,74.0,67.0,30.02,ENE,58,2.0,-999.0,78,-99.99,,,0.00,weatherlink.com 1.10,2013-01-20 22:10:00,
2013-01-20 17:25:00,73.5,67.0,30.02,NE,42,3.0,-999.0,79,-99.99,,,0.00,weatherlink.com 1.10,2013-01-20 22:25:00,
2013-01-20 17:40:00,73.2,67.0,30.02,NE,47,0.0,-999.0,80,-99.99,,,0.00,weatherlink.com 1.10,2013-01-20 22:40:00,
2013-01-20 17:55:00,73.0,67.0,30.02,ENE,69,3.0,-999.0,81,-99.99,,,0.00,weatherlink.com 1.10,2013-01-20 22:55:00,
2013-01-20 18:10:00,72.6,67.0,30.02,NW,305,1.0,-999.0,82,-99.99,,,0.00,weatherlink.com 1.10,2013-01-20 23:10:00,
2013-01-20 18:25:00,72.3,67.0,30.03,NE,45,0.0,-999.0,83,-99.99,,,0.00,weatherlink.com 1.10,2013-01-20 23:25:00,
2013-01-20 18:40:00,72.3,67.0,30.03,NNE,30,1.0,-999.0,83,-99.99,,,0.00,weatherlink.com 1.10,2013-01-20 23:40:00,
2013-01-20 18:55:00,72.3,67.0,30.03,NNE,19,1.0,-999.0,83,-99.99,,,0.00,weatherlink.com 1.10,2013-01-20 23:55:00,
2013-01-20 19:10:00,72.3,67.0,30.03,NE,49,0.0,-999.0,84,-99.99,,,0.00,weatherlink.com 1.10,2013-01-21 00:10:00,
2013-01-20 19:25:00,72.2,67.0,30.03,NW,306,0.0,-999.0,84,-99.99,,,0.00,weatherlink.com 1.10,2013-01-21 00:25:00,
2013-01-20 19:40:00,72.2,67.0,30.03,NNW,344,0.0,-999.0,84,-99.99,,,0.00,weatherlink.com 1.10,2013-01-21 00:40:00,
2013-01-20 19:55:00,72.0,67.0,30.03,NNW,337,0.0,-999.0,84,-99.99,,,0.00,weatherlink.com 1.10,2013-01-21 00:55:00,
2013-01-20 20:10:00,71.9,67.0,30.04,NW,319,0.0,-999.0,85,-99.99,,,0.00,weatherlink.com 1.10,2013-01-21 01:10:00,
2013-01-20 20:25:00,71.8,67.0,30.04,NW,317,0.0,-999.0,85,-99.99,,,0.00,weatherlink.com 1.10,2013-01-21 01:25:00,
2013-01-20 20:40:00,71.7,67.0,30.04,SE,133,0.0,-999.0,85,-99.99,,,0.00,weatherlink.com 1.10,2013-01-21 01:40:00,
2013-01-20 20:55:00,71.8,67.0,30.03,NW,317,0.0,-999.0,85,-99.99,,,0.00,weatherlink.com 1.10,2013-01-21 01:55:00,
2013-01-20 21:10:00,71.8,67.0,30.04,NW,316,0.0,-999.0,85,-99.99,,,0.00,weatherlink.com 1.10,2013-01-21 02:10:00,
2013-01-20 21:25:00,71.8,68.0,30.04,NW,317,0.0,-999.0,86,-99.99,,,0.00,weatherlink.com 1.10,2013-01-21 02:25:00,
2013-01-20 21:40:00,71.4,67.0,30.05,NW,317,0.0,-999.0,87,-99.99,,,0.00,weatherlink.com 1.10,2013-01-21 02:40:00,
2013-01-20 21:55:00,71.1,67.0,30.05,NNE,30,0.0,-999.0,88,-99.99,,,0.00,weatherlink.com 1.10,2013-01-21 02:55:00,
2013-01-20 22:10:00,70.9,67.0,30.05,NE,53,3.0,-999.0,87,-99.99,,,0.00,weatherlink.com 1.10,2013-01-21 03:10:00,
2013-01-20 22:25:00,71.2,67.0,30.05,ENE,74,1.0,-999.0,87,-99.99,,,0.00,weatherlink.com 1.10,2013-01-21 03:25:00,
2013-01-20 22:40:00,71.0,67.0,30.05,East,92,0.0,-999.0,87,-99.99,,,0.00,weatherlink.com 1.10,2013-01-21 03:40:00,
2013-01-20 22:55:00,71.0,67.0,30.05,SSW,201,0.0,-999.0,88,-99.99,,,0.00,weatherlink.com 1.10,2013-01-21 03:55:00,
2013-01-20 23:10:00,70.8,67.0,30.05,SE,125,0.0,-999.0,88,-99.99,,,0.00,weatherlink.com 1.10,2013-01-21 04:10:00,
2013-01-20 23:25:00,70.1,67.0,30.04,East,90,1.0,-999.0,91,-99.99,,,0.00,weatherlink.com 1.10,2013-01-21 04:25:00,
2013-01-20 23:40:00,69.4,67.0,30.04,ENE,78,0.0,-999.0,92,-99.99,,,0.00,weatherlink.com 1.10,2013-01-21 04:40:00,
2013-01-20 23:55:00,69.2,67.0,30.04,NE,39,0.0,-999.0,93,-99.99,,,0.00,weatherlink.com 1.10,2013-01-21 04:55:00,